Location: Six Mile Lake
(44.9000°N, 79.7170°W)
Time: 12:30:05
(UTC-04:00)

O/OREOS (USA 219) - Pass Details

Date: 09 July 2022
Orbit: 621 x 646 km, 72.0° (Epoch: 22 May)

Event Time Altitude Azimuth Distance (km) Brightness Sun altitude
Rises 01:14:23 0° 321° (NW) 2,966 ? -22.7°
Reaches altitude 10° 01:17:11 10° 305° (NW) 2,051 ? -22.7°
Maximum altitude 01:20:28 20° 259° (W) 1,511 ? -22.7°
Enters shadow 01:20:32 20° 258° (WSW) 1,512 ? -22.7°
